Ryouei Maru — JL6703 — position and weather

sailwx.info

Track history (hours):
 
Tides and Currents Weather Stations Pressure Air Temp Water Temp Dewpoint Dewpoint Depression Visibility Wind Speed Wind Dir Waves Ship Positions

Ryouei Maru

Last reported at 2014-Oct-19 14:05 UTC. Time now 2014-Oct-20 04:34 UTC.
Position N 33°58' E 134°60'.

Length 95 m; draft 5 m.

Type: Cargo ship. MMSI: 431501749.

Date/timePositionNaut miles runAvg speedWind from/ knotsBaromVisibWave heightAir tempDewpointWater temp
2014-Oct-19 14:05N 33°58' E 134°60'713.6
2014-Oct-19 13:33N 34°05' E 134°59'1413.7
2014-Oct-19 12:33N 34°19' E 134°59'1313.1
2014-Oct-19 11:33N 34°29' E 135°09'1313.0
2014-Oct-19 10:33N 34°37' E 135°21'4 3.8
2014-Oct-19 09:33N 34°37' E 135°26'0 0.0
2014-Oct-19 08:33N 34°37' E 135°26'0 0.0
2014-Oct-19 07:33N 34°37' E 135°26'0 0.0
2014-Oct-19 06:27N 34°37' E 135°26'0 0.0
2014-Oct-19 05:33N 34°37' E 135°26'0 0.0
2014-Oct-19 00:33N 34°37' E 135°26'0 0.0
2014-Oct-18 23:09N 34°37' E 135°26'0 0.1
2014-Oct-18 22:33N 34°37' E 135°26'6 5.9
2014-Oct-18 21:33N 34°35' E 135°19'1 0.8
2014-Oct-18 20:31N 34°35' E 135°18'0 0.0
2014-Oct-18 19:31N 34°35' E 135°18'0 0.0
2014-Oct-18 18:31N 34°35' E 135°18'0 0.0
2014-Oct-18 17:31N 34°35' E 135°18'0 0.0
2014-Oct-18 16:25N 34°35' E 135°18'0 0.0
2014-Oct-18 15:31N 34°35' E 135°18'6 6.2
2014-Oct-18 14:33N 34°30' E 135°13'1312.0
2014-Oct-18 13:28N 34°20' E 135°03'1211.2
2014-Oct-18 12:24N 34°09' E 134°60'1112.6
2014-Oct-18 11:32N 33°58' E 135°01'  
2014-Oct-10 14:32N 34°04' E 134°58'1313.5
2014-Oct-10 13:33N 34°17' E 134°58'1313.0
2014-Oct-10 12:33N 34°28' E 135°08'1413.8
2014-Oct-10 11:34N 34°37' E 135°20'4 3.6
2014-Oct-10 10:23N 34°37' E 135°26'0 0.0
2014-Oct-10 09:29N 34°37' E 135°26'0 0.0
2014-Oct-10 08:19N 34°37' E 135°26'0 0.0
2014-Oct-10 07:25N 34°37' E 135°26'0 0.0
2014-Oct-10 06:25N 34°37' E 135°26'0 0.0
2014-Oct-10 05:31N 34°37' E 135°26'0 0.0
2014-Oct-10 04:31N 34°37' E 135°26'0 0.0
2014-Oct-10 03:13N 34°37' E 135°26'0 0.1
2014-Oct-10 02:31N 34°37' E 135°26'0 0.0
2014-Oct-10 01:22N 34°37' E 135°26'0 0.0
2014-Oct-10 00:28N 34°37' E 135°26'0 0.0
2014-Oct-09 23:29N 34°37' E 135°26'0 0.0
2014-Oct-09 22:29N 34°37' E 135°26'3 3.2
2014-Oct-09 21:33N 34°37' E 135°22'4 4.0
2014-Oct-09 20:30N 34°35' E 135°18'0 0.0
2014-Oct-09 19:24N 34°35' E 135°18'0 0.1
2014-Oct-09 18:30N 34°35' E 135°18'0 0.0
2014-Oct-09 17:30N 34°35' E 135°18'0 0.0
2014-Oct-09 16:30N 34°35' E 135°18'0 0.0
2014-Oct-09 15:30N 34°35' E 135°18'3 3.2
2014-Oct-09 14:33N 34°33' E 135°15'  
Track history (hours):
 
Tides and Currents Weather Stations Pressure Air Temp Water Temp Dewpoint Dewpoint Depression Visibility Wind Speed Wind Dir Waves Ship Positions

Ryouei Maru

Last reported at 2014-Oct-19 14:05 UTC. Time now 2014-Oct-20 04:34 UTC.
Position N 33°58' E 134°60'.

Length 95 m; draft 5 m.

Type: Cargo ship. MMSI: 431501749.

Date/timePositionNaut miles runAvg speedWind from/ knotsBaromVisibWave heightAir tempDewpointWater temp
2014-Oct-19 14:05N 33°58' E 134°60'713.6
2014-Oct-19 13:33N 34°05' E 134°59'1413.7
2014-Oct-19 12:33N 34°19' E 134°59'1313.1
2014-Oct-19 11:33N 34°29' E 135°09'1313.0
2014-Oct-19 10:33N 34°37' E 135°21'4 3.8
2014-Oct-19 09:33N 34°37' E 135°26'0 0.0
2014-Oct-19 08:33N 34°37' E 135°26'0 0.0
2014-Oct-19 07:33N 34°37' E 135°26'0 0.0
2014-Oct-19 06:27N 34°37' E 135°26'0 0.0
2014-Oct-19 05:33N 34°37' E 135°26'0 0.0
2014-Oct-19 00:33N 34°37' E 135°26'0 0.0
2014-Oct-18 23:09N 34°37' E 135°26'0 0.1
2014-Oct-18 22:33N 34°37' E 135°26'6 5.9
2014-Oct-18 21:33N 34°35' E 135°19'1 0.8
2014-Oct-18 20:31N 34°35' E 135°18'0 0.0
2014-Oct-18 19:31N 34°35' E 135°18'0 0.0
2014-Oct-18 18:31N 34°35' E 135°18'0 0.0
2014-Oct-18 17:31N 34°35' E 135°18'0 0.0
2014-Oct-18 16:25N 34°35' E 135°18'0 0.0
2014-Oct-18 15:31N 34°35' E 135°18'6 6.2
2014-Oct-18 14:33N 34°30' E 135°13'1312.0
2014-Oct-18 13:28N 34°20' E 135°03'1211.2
2014-Oct-18 12:24N 34°09' E 134°60'1112.6
2014-Oct-18 11:32N 33°58' E 135°01'  
2014-Oct-10 14:32N 34°04' E 134°58'1313.5
2014-Oct-10 13:33N 34°17' E 134°58'1313.0
2014-Oct-10 12:33N 34°28' E 135°08'1413.8
2014-Oct-10 11:34N 34°37' E 135°20'4 3.6
2014-Oct-10 10:23N 34°37' E 135°26'0 0.0
2014-Oct-10 09:29N 34°37' E 135°26'0 0.0
2014-Oct-10 08:19N 34°37' E 135°26'0 0.0
2014-Oct-10 07:25N 34°37' E 135°26'0 0.0
2014-Oct-10 06:25N 34°37' E 135°26'0 0.0
2014-Oct-10 05:31N 34°37' E 135°26'0 0.0
2014-Oct-10 04:31N 34°37' E 135°26'0 0.0
2014-Oct-10 03:13N 34°37' E 135°26'0 0.1
2014-Oct-10 02:31N 34°37' E 135°26'0 0.0
2014-Oct-10 01:22N 34°37' E 135°26'0 0.0
2014-Oct-10 00:28N 34°37' E 135°26'0 0.0
2014-Oct-09 23:29N 34°37' E 135°26'0 0.0
2014-Oct-09 22:29N 34°37' E 135°26'3 3.2
2014-Oct-09 21:33N 34°37' E 135°22'4 4.0
2014-Oct-09 20:30N 34°35' E 135°18'0 0.0
2014-Oct-09 19:24N 34°35' E 135°18'0 0.1
2014-Oct-09 18:30N 34°35' E 135°18'0 0.0
2014-Oct-09 17:30N 34°35' E 135°18'0 0.0
2014-Oct-09 16:30N 34°35' E 135°18'0 0.0
2014-Oct-09 15:30N 34°35' E 135°18'3 3.2
2014-Oct-09 14:33N 34°33' E 135°15'  

Dump ship's entire track history